Regional Weather Roundup
Issued by NWS

Home | Current Version | Previous Version | Text Only | Print | Product List | Glossary On
Versions: 1 2 3 4 5 6 7 8 9 10 11 12 13 14 15 16 17 18 19 20 21 22 23 24 25 26 27 28 29 30 31 32 33 34 35 36 37 38 39 40 41 42 43 44 45 46 47 48 49 50
000
ASUS43 KLSX 262010
RWRMO

WEATHER SUMMARY FOR MISSOURI
NATIONAL WEATHER SERVICE SPRINGFIELD MO
300 PM CDT WED JUL 26 2017

NOTE: "FAIR" INDICATES FEW OR NO CLOUDS BELOW 12,000 FEET WITH NO
       SIGNIFICANT WEATHER AND/OR OBSTRUCTIONS TO VISIBILITY.
       CURRENT SKY AND/OR WEATHER CONDITIONS ARE NOT AVAILABLE FOR
       CHILLICOTHE AND FARMINGTON.

MOZ001>031-035>038-043-044-053-054-262100-
...NORTHERN AND WESTERN MISSOURI...

CITY           SKY/WX    TMP DP  RH WIND       PRES   REMARKS
KANSAS CTY INT CLOUDY    81  75  82 S5        29.99S
KANSAS C DTWN  CLOUDY    83  76  79 S8        29.96F HX  91
LEE`S SUMMIT   CLOUDY    82  77  84 S13       29.99F HX  90
ST JOSEPH      CLOUDY    80  76  87 S8        29.97F
CHILLICOTHE      N/A     84  78  82 VRB3      30.00F HX  95
KIRKSVILLE     CLOUDY    84  75  74 W6        30.02S HX  92

$$
MOZ066>068-077>081-088>096-101>105-262100-
...SOUTHWEST MISSOURI...

CITY           SKY/WX    TMP DP  RH WIND       PRES   REMARKS
SPRINGFIELD    CLOUDY    94  70  45 SW14      30.03F HX 100
JOPLIN         CLOUDY    99  71  40 S16       30.01F HX 107
BRANSON        CLOUDY    91  70  49 SW5       30.07F HX  97

$$
MOZ032>034-039>042-045>050-055>058-069>072-262100-
...CENTRAL MISSOURI...

CITY           SKY/WX    TMP DP  RH WIND       PRES   REMARKS
COLUMBIA       CLOUDY    90  75  61 W6        30.01F HX 100
JEFFERSON CITY CLOUDY    92  74  55 SW5       29.99F HX 101
ROLLA          CLOUDY    91  71  51 S8        30.04F HX  97
SEDALIA        CLOUDY    88  77  69 CALM      30.02F HX 100
WHITEMAN AFB   PTSUNNY   85  77  76 S7        30.00  HX  96
WARRENSBURG    PTSUNNY   84  73  70 S6        30.00F HX  91
OSAGE BEACH    CLOUDY    93  72  50 VRB3      30.01F HX 101

$$
MOZ051-052-059>065-262100-
...EAST CENTRAL MISSOURI...

CITY           SKY/WX    TMP DP  RH WIND       PRES   REMARKS
ST LOUIS INTL  CLOUDY    98  72  42 W12       30.00F HX 107
SPIRIT OF STL  CLOUDY    95  75  52 SW7       29.98F HX 107
ST CHARLES     CLOUDY    93  75  55 W7        29.98F HX 104

$$
MOZ072>076-082>087-097>100-106>115-262100-
...SOUTH CENTRAL AND SOUTHEAST MISSOURI...

CITY           SKY/WX    TMP DP  RH WIND       PRES   REMARKS
CAPE GIRARDEAU CLOUDY    91  78  65 S10       30.00F HX 106
FARMINGTON     CLOUDY    97  72  44 W7        30.01F HX 105
POPLAR BLUFF     N/A     92  76  59 S10       30.00F HX 104
WEST PLAINS    CLOUDY    93  68  43 W8        30.07F HX  97

$$




USA.gov is the U.S. government's official web portal to all federal, state and local government web resources and services.